星链-36818(STARLINK-36818)

导读

STARLINK-36818是美国SpaceX星链计划的一颗卫星,于2026年2月21日发射升空。作为星链星座组网的组成部分,它旨在为全球用户提供高速互联网接入服务,尤其覆盖偏远地区等网络基础设施薄弱区域,进一步拓展星链系统的服务覆盖范围与网络容量,支撑低轨卫星互联网的规模化部署。

Basic Information
目录编号:
67879
目录名称:
STARLINK-36818
国际标识:
2026-035A
轨道中心:
EARTH
卫星名称:
星链-36818
卫星全名:
星链-36818(STARLINK-36818)
卫星状态:
在轨 (已飞行196 天)
发射日期:
2026-02-21 UTC
国别 :
美国 (US)
星等 :
--
Orbit Information
数据来源 国际轨道数据
星历时间: 2026-09-05T14:26:10+0800
6小时前
查看轨道信息
半长轴: 6843.669km
偏心率: 0.0001324
轨道倾角: 97.281°
近地点辐角 105.590°
升交点赤经 180.254°
平近点角 254.549°
近地点: 464.625km
远地点: 466.439km
周期: 93.906分钟
每日圈数: 15.334488
Detailed Information
固有亮度:
5
最大亮度:
2.5
卫星平台:
Starlink V1.0
覆盖范围:
全球
运营商:
太空探索技术公司
运营商所在国:
美国
制造商(研发单位):
太空探索技术公司
制造商所在国:
美国
使用方式:
暂无
Satellite Introduction
Starlink 计划是 SpaceX 推出的全球卫星互联网项目,通过发射低轨道卫星,为全球尤其是偏远地区提供高速、低延迟的互联网服务。自 2019 年起,Starlink 已部署数千颗卫星,旨在缩小全球数字鸿沟,推动互联网普及。该项目还为军事、航空等行业提供通信支持,带来广泛经济效益。
2D Orbit Map
3D Orbit Map
Orbit Altitude Analysis Chart
Orbit Inclination Analysis Chart
Orbit Comprehensive Analysis Chart
View Comprehensive Chart
Conjunction Data List
Event ID Objects TCA Miss Dist (km) Collision Risk Probability Collision Risk Index (CRI) Action
CDM_260906-083005-237906-787921
2026-09-06T
08:30:28+0000
1.758 km
极远距离
3.434811E-6 低风险 0.46
CDM_260905-155905-019306-787921
2026-09-05T
15:59:30+0000
2.848 km
极远距离
9.568181E-7 极低风险 0.35